Time,TemperatureF,DewpointF,PressureIn,WindDirection,WindDirectionDegrees,WindSpeedMPH,WindSpeedGustMPH,Humidity,HourlyPrecipIn,Conditions,Clouds,dailyrainin,SoftwareType,DateUTC
2013-09-21 00:05:00,83.2,79.0,29.84,ESE,121,3.0,7.0,87,0.00,,,0.00,weatherlink.com 1.10,2013-09-21 04:05:00,
2013-09-21 00:20:00,83.1,79.0,29.84,SE,126,4.0,7.0,87,0.00,,,0.00,weatherlink.com 1.10,2013-09-21 04:20:00,
2013-09-21 00:36:00,82.9,79.0,29.83,East,100,1.0,5.0,88,0.00,,,0.00,weatherlink.com 1.10,2013-09-21 04:36:00,
2013-09-21 00:50:00,82.7,79.0,29.83,East,93,1.0,5.0,87,0.00,,,0.00,weatherlink.com 1.10,2013-09-21 04:50:00,
2013-09-21 01:05:00,82.6,79.0,29.82,East,100,0.0,5.0,88,0.00,,,0.00,weatherlink.com 1.10,2013-09-21 05:05:00,
2013-09-21 01:20:00,82.5,79.0,29.82,East,95,1.0,3.0,89,0.00,,,0.00,weatherlink.com 1.10,2013-09-21 05:20:00,
2013-09-21 01:50:00,82.0,79.0,29.81,ESE,116,1.0,4.0,89,0.00,,,0.00,weatherlink.com 1.10,2013-09-21 05:50:00,
2013-09-21 02:05:00,81.8,78.0,29.81,ESE,123,2.0,5.0,89,0.00,,,0.00,weatherlink.com 1.10,2013-09-21 06:05:00,
2013-09-21 02:20:00,81.8,78.0,29.80,ESE,110,1.0,3.0,89,0.00,,,0.00,weatherlink.com 1.10,2013-09-21 06:20:00,
2013-09-21 02:35:00,82.0,79.0,29.80,East,90,1.0,3.0,90,0.00,,,0.00,weatherlink.com 1.10,2013-09-21 06:35:00,
2013-09-21 02:50:00,82.0,79.0,29.80,ESE,117,3.0,5.0,90,0.00,,,0.00,weatherlink.com 1.10,2013-09-21 06:50:00,
2013-09-21 03:05:00,81.9,79.0,29.79,ESE,115,1.0,3.0,90,0.00,,,0.00,weatherlink.com 1.10,2013-09-21 07:05:00,
2013-09-21 03:20:00,81.8,79.0,29.80,SE,134,1.0,4.0,90,0.00,,,0.00,weatherlink.com 1.10,2013-09-21 07:20:00,
2013-09-21 03:35:00,81.7,79.0,29.80,SE,128,1.0,4.0,90,0.00,,,0.00,weatherlink.com 1.10,2013-09-21 07:35:00,
2013-09-21 03:50:00,81.7,79.0,29.80,ESE,117,0.0,5.0,90,0.00,,,0.00,weatherlink.com 1.10,2013-09-21 07:50:00,
2013-09-21 04:05:00,81.6,79.0,29.81,ESE,111,1.0,3.0,90,0.00,,,0.00,weatherlink.com 1.10,2013-09-21 08:05:00,
2013-09-21 04:20:00,81.5,78.0,29.81,ESE,111,1.0,2.0,90,0.00,,,0.00,weatherlink.com 1.10,2013-09-21 08:20:00,
2013-09-21 04:35:00,81.4,78.0,29.81,ESE,107,0.0,1.0,90,0.00,,,0.00,weatherlink.com 1.10,2013-09-21 08:35:00,
2013-09-21 04:50:00,81.3,78.0,29.81,East,96,1.0,2.0,90,0.00,,,0.00,weatherlink.com 1.10,2013-09-21 08:50:00,
2013-09-21 05:05:00,81.4,79.0,29.81,East,93,1.0,5.0,91,0.00,,,0.00,weatherlink.com 1.10,2013-09-21 09:05:00,
2013-09-21 05:20:00,81.4,78.0,29.81,East,90,1.0,3.0,90,0.00,,,0.00,weatherlink.com 1.10,2013-09-21 09:20:00,
2013-09-21 05:35:00,81.1,78.0,29.81,East,91,0.0,3.0,90,0.00,,,0.00,weatherlink.com 1.10,2013-09-21 09:35:00,
2013-09-21 05:50:00,80.8,78.0,29.81,East,88,0.0,2.0,90,0.00,,,0.00,weatherlink.com 1.10,2013-09-21 09:50:00,
2013-09-21 06:05:00,80.5,77.0,29.81,East,92,0.0,3.0,90,0.00,,,0.00,weatherlink.com 1.10,2013-09-21 10:05:00,
2013-09-21 06:20:00,80.3,78.0,29.82,East,89,1.0,3.0,91,0.00,,,0.00,weatherlink.com 1.10,2013-09-21 10:20:00,
2013-09-21 06:35:00,80.2,77.0,29.81,East,88,2.0,2.0,91,0.00,,,0.00,weatherlink.com 1.10,2013-09-21 10:35:00,
2013-09-21 06:50:00,80.3,78.0,29.82,ESE,107,0.0,3.0,91,0.00,,,0.00,weatherlink.com 1.10,2013-09-21 10:50:00,
2013-09-21 07:05:00,80.7,78.0,29.82,East,94,1.0,4.0,91,0.00,,,0.00,weatherlink.com 1.10,2013-09-21 11:05:00,
2013-09-21 07:20:00,81.6,79.0,29.83,ESE,119,1.0,5.0,90,0.00,,,0.00,weatherlink.com 1.10,2013-09-21 11:20:00,
2013-09-21 07:35:00,83.4,79.0,29.83,ESE,109,2.0,5.0,87,0.00,,,0.00,weatherlink.com 1.10,2013-09-21 11:35:00,
2013-09-21 07:50:00,85.1,79.0,29.84,SE,134,2.0,9.0,82,0.00,,,0.00,weatherlink.com 1.10,2013-09-21 11:50:00,
2013-09-21 08:05:00,86.2,79.0,29.84,ENE,76,2.0,8.0,80,0.00,,,0.00,weatherlink.com 1.10,2013-09-21 12:05:00,
2013-09-21 08:21:00,86.2,79.0,29.84,SSW,192,2.0,5.0,79,0.00,,,0.00,weatherlink.com 1.10,2013-09-21 12:21:00,
2013-09-21 08:36:00,86.8,80.0,29.84,SE,144,2.0,7.0,79,0.00,,,0.00,weatherlink.com 1.10,2013-09-21 12:36:00,
2013-09-21 08:51:00,87.8,79.0,29.84,SE,126,3.0,8.0,74,0.00,,,0.00,weatherlink.com 1.10,2013-09-21 12:51:00,
2013-09-21 09:06:00,88.4,79.0,29.84,ESE,113,4.0,7.0,73,0.00,,,0.00,weatherlink.com 1.10,2013-09-21 13:06:00,
2013-09-21 09:21:00,88.0,78.0,29.84,SE,125,1.0,8.0,72,0.00,,,0.00,weatherlink.com 1.10,2013-09-21 13:21:00,
2013-09-21 09:36:00,88.0,78.0,29.84,ESE,121,7.0,8.0,72,0.00,,,0.00,weatherlink.com 1.10,2013-09-21 13:36:00,
2013-09-21 10:06:00,88.9,79.0,29.84,SE,128,2.0,9.0,72,0.00,,,0.00,weatherlink.com 1.10,2013-09-21 14:06:00,
2013-09-21 10:21:00,90.1,78.0,29.84,SE,130,3.0,8.0,68,0.00,,,0.00,weatherlink.com 1.10,2013-09-21 14:21:00,
2013-09-21 10:36:00,90.6,79.0,29.84,NE,49,2.0,10.0,68,0.00,,,0.00,weatherlink.com 1.10,2013-09-21 14:36:00,
2013-09-21 10:51:00,89.3,78.0,29.84,SE,129,3.0,10.0,70,0.00,,,0.00,weatherlink.com 1.10,2013-09-21 14:51:00,
2013-09-21 11:21:00,91.7,78.0,29.83,East,95,7.0,11.0,65,0.00,,,0.00,weatherlink.com 1.10,2013-09-21 15:21:00,
2013-09-21 11:36:00,92.2,79.0,29.83,East,91,0.0,13.0,65,0.00,,,0.00,weatherlink.com 1.10,2013-09-21 15:36:00,
2013-09-21 11:51:00,92.0,79.0,29.82,SSE,159,3.0,11.0,65,0.00,,,0.00,weatherlink.com 1.10,2013-09-21 15:51:00,
2013-09-21 12:06:00,92.1,79.0,29.82,ESE,119,4.0,11.0,66,0.00,,,0.00,weatherlink.com 1.10,2013-09-21 16:06:00,
2013-09-21 12:21:00,91.7,79.0,29.81,SE,140,2.0,13.0,66,0.00,,,0.00,weatherlink.com 1.10,2013-09-21 16:21:00,
2013-09-21 12:36:00,92.2,79.0,29.81,ESE,113,3.0,12.0,66,0.00,,,0.00,weatherlink.com 1.10,2013-09-21 16:36:00,
2013-09-21 12:51:00,91.1,78.0,29.80,SSE,156,5.0,13.0,66,0.00,,,0.00,weatherlink.com 1.10,2013-09-21 16:51:00,
2013-09-21 13:06:00,92.1,78.0,29.79,ESE,122,4.0,13.0,64,0.00,,,0.00,weatherlink.com 1.10,2013-09-21 17:06:00,
2013-09-21 13:21:00,92.9,79.0,29.77,ENE,57,4.0,14.0,65,0.00,,,0.00,weatherlink.com 1.10,2013-09-21 17:21:00,
2013-09-21 13:36:00,93.2,78.0,29.76,ESE,109,8.0,14.0,62,0.00,,,0.00,weatherlink.com 1.10,2013-09-21 17:36:00,
2013-09-21 13:51:00,92.1,79.0,29.76,ESE,115,8.0,12.0,65,0.00,,,0.00,weatherlink.com 1.10,2013-09-21 17:51:00,
2013-09-21 14:06:00,92.8,78.0,29.75,ESE,114,3.0,12.0,63,0.00,,,0.00,weatherlink.com 1.10,2013-09-21 18:06:00,
2013-09-21 14:21:00,92.0,78.0,29.75,ESE,107,3.0,12.0,63,0.00,,,0.00,weatherlink.com 1.10,2013-09-21 18:21:00,
2013-09-21 14:36:00,91.6,78.0,29.74,East,101,6.0,13.0,64,0.00,,,0.00,weatherlink.com 1.10,2013-09-21 18:36:00,
2013-09-21 14:51:00,92.4,78.0,29.74,East,90,3.0,12.0,62,0.00,,,0.00,weatherlink.com 1.10,2013-09-21 18:51:00,
2013-09-21 15:06:00,92.6,79.0,29.74,SE,130,4.0,14.0,65,0.00,,,0.00,weatherlink.com 1.10,2013-09-21 19:06:00,
2013-09-21 15:21:00,91.7,80.0,29.74,ESE,120,3.0,13.0,68,0.00,,,0.00,weatherlink.com 1.10,2013-09-21 19:21:00,
2013-09-21 15:36:00,90.4,80.0,29.73,ENE,74,8.0,14.0,72,0.00,,,0.00,weatherlink.com 1.10,2013-09-21 19:36:00,
2013-09-21 15:51:00,89.3,80.0,29.73,ESE,107,0.0,13.0,74,0.00,,,0.00,weatherlink.com 1.10,2013-09-21 19:51:00,
2013-09-21 16:06:00,90.0,81.0,29.73,East,94,6.0,13.0,74,0.00,,,0.00,weatherlink.com 1.10,2013-09-21 20:06:00,
2013-09-21 16:21:00,89.0,80.0,29.73,SE,140,6.0,15.0,75,0.00,,,0.00,weatherlink.com 1.10,2013-09-21 20:21:00,
2013-09-21 16:36:00,88.4,80.0,29.73,SE,133,6.0,14.0,76,0.00,,,0.00,weatherlink.com 1.10,2013-09-21 20:36:00,
2013-09-21 16:51:00,88.0,80.0,29.73,ESE,104,7.0,13.0,76,0.00,,,0.00,weatherlink.com 1.10,2013-09-21 20:51:00,
2013-09-21 17:06:00,88.0,80.0,29.73,East,101,7.0,13.0,77,0.00,,,0.00,weatherlink.com 1.10,2013-09-21 21:06:00,
2013-09-21 17:21:00,87.8,80.0,29.73,ESE,117,10.0,13.0,77,0.00,,,0.00,weatherlink.com 1.10,2013-09-21 21:21:00,
2013-09-21 17:36:00,87.0,80.0,29.73,SE,134,2.0,11.0,79,0.00,,,0.00,weatherlink.com 1.10,2013-09-21 21:36:00,
2013-09-21 17:51:00,86.6,80.0,29.74,ESE,109,7.0,12.0,80,0.00,,,0.00,weatherlink.com 1.10,2013-09-21 21:51:00,
2013-09-21 18:06:00,86.2,80.0,29.74,SSE,147,5.0,11.0,81,0.00,,,0.00,weatherlink.com 1.10,2013-09-21 22:06:00,
2013-09-21 18:21:00,85.7,79.0,29.74,ESE,117,8.0,13.0,81,0.00,,,0.00,weatherlink.com 1.10,2013-09-21 22:21:00,
2013-09-21 18:36:00,85.2,79.0,29.74,ESE,111,7.0,12.0,82,0.00,,,0.00,weatherlink.com 1.10,2013-09-21 22:36:00,
2013-09-21 18:51:00,85.0,79.0,29.75,ESE,117,3.0,12.0,83,0.00,,,0.00,weatherlink.com 1.10,2013-09-21 22:51:00,
2013-09-21 19:21:00,84.8,79.0,29.75,East,95,8.0,11.0,83,0.00,,,0.00,weatherlink.com 1.10,2013-09-21 23:21:00,
2013-09-21 19:36:00,84.7,79.0,29.76,ESE,111,3.0,10.0,83,0.00,,,0.00,weatherlink.com 1.10,2013-09-21 23:36:00,
2013-09-21 19:51:00,84.5,79.0,29.76,SSE,147,6.0,9.0,83,0.00,,,0.00,weatherlink.com 1.10,2013-09-21 23:51:00,
2013-09-21 20:06:00,84.5,79.0,29.77,East,96,7.0,14.0,83,0.00,,,0.00,weatherlink.com 1.10,2013-09-22 00:06:00,
2013-09-21 20:21:00,84.3,79.0,29.77,East,92,6.0,11.0,83,0.00,,,0.00,weatherlink.com 1.10,2013-09-22 00:21:00,
2013-09-21 20:36:00,84.3,78.0,29.78,SE,145,6.0,11.0,82,0.00,,,0.00,weatherlink.com 1.10,2013-09-22 00:36:00,
2013-09-21 20:51:00,84.2,79.0,29.79,ESE,123,4.0,10.0,83,0.00,,,0.00,weatherlink.com 1.10,2013-09-22 00:51:00,
2013-09-21 21:06:00,84.2,79.0,29.79,ESE,107,4.0,11.0,84,0.00,,,0.00,weatherlink.com 1.10,2013-09-22 01:06:00,
2013-09-21 21:21:00,84.0,78.0,29.80,NE,49,2.0,10.0,83,0.00,,,0.00,weatherlink.com 1.10,2013-09-22 01:21:00,
2013-09-21 21:37:00,84.0,78.0,29.80,East,92,8.0,8.0,83,0.00,,,0.00,weatherlink.com 1.10,2013-09-22 01:37:00,
2013-09-21 21:52:00,84.0,78.0,29.81,ESE,113,5.0,12.0,82,0.00,,,0.00,weatherlink.com 1.10,2013-09-22 01:52:00,
2013-09-21 22:07:00,84.0,78.0,29.81,SE,139,1.0,11.0,82,0.00,,,0.00,weatherlink.com 1.10,2013-09-22 02:07:00,
2013-09-21 22:22:00,83.9,78.0,29.82,ENE,61,8.0,11.0,82,0.00,,,0.00,weatherlink.com 1.10,2013-09-22 02:22:00,
2013-09-21 22:37:00,84.0,78.0,29.82,East,101,2.0,9.0,83,0.00,,,0.00,weatherlink.com 1.10,2013-09-22 02:37:00,
2013-09-21 22:52:00,83.9,78.0,29.82,East,84,1.0,10.0,83,0.00,,,0.00,weatherlink.com 1.10,2013-09-22 02:52:00,
2013-09-21 23:07:00,83.9,78.0,29.83,ESE,109,7.0,8.0,83,0.00,,,0.00,weatherlink.com 1.10,2013-09-22 03:07:00,
2013-09-21 23:22:00,83.9,78.0,29.82,SE,141,5.0,9.0,83,0.00,,,0.00,weatherlink.com 1.10,2013-09-22 03:22:00,
2013-09-21 23:37:00,83.9,78.0,29.82,ENE,75,7.0,11.0,83,0.00,,,0.00,weatherlink.com 1.10,2013-09-22 03:37:00,
2013-09-21 23:52:00,83.8,78.0,29.82,East,89,3.0,10.0,83,0.00,,,0.00,weatherlink.com 1.10,2013-09-22 03:52:00,